OV1-4 R/B, 2124

Orbit data source: Space-Track

OV1-4 R/B, 2124 is space debris in LEO originally from a launch on Wed, 30 Mar 1966 UTC launched from the Air Force Western Test Range (AFWTR). Debris objects in space refer to the collection of defunct objects orbiting the Earth. Examples of debris include non-operational satellites, rocket bodies, and fragments generated from explosions, collisions, or faulty payload assembly.

Loading next visibility...
Identifier
2124, 1966-025D
Orbit
LEO
Country
Flag of USUS
Related business
Manufacturer
ABL
Mission
Spacecraft
Bus & Motor
ALTAIR, Unknown motor
Mass
~125 kg wet, ~125 kg dry
Launch date (UTC)
1966-03-30 (59 years ago)
Launch vehicle
Unknown
Launch site
Air Force Western Test Range (AFWTR)
Object type
Payload
Rocket body
Debris
Shape & HBR
Cyl, 1.1 m
Radar Cross Section
1.347 m², Medium (>0.1 m² and < 1m²)

Expand to show TLE details & history
Last TLE update: 9 hours ago

TLE from 9 hours ago
0 OV1-4 R/B
1 02124U 66025D   25242.89744901  .00000440  00000-0  14051-3 0  9997
2 02124 144.5124  37.1909 0080759 194.9688 164.8584 13.87780658 11253
Epoch: 2025-08-30T21:32Z
TLE epoch observation values (Epoch: 2025-08-30T21:32:19.594Z)
Latitude
-0.00001°
Longitude
94.78412°
Altitude
992.481 km
Speed
7.329 km/s
True Right ascension
02h 28m 45s
True Declination
0° 00' 00"
Sunlit
Object was in full shadow at epoch
Visualization orbit readout
Latitude
Unknown
Longitude
Unknown
Altitude
Unknown
Speed
Unknown
Apparent Right ascension
Unknown
Apparent Declination
Unknown
Sunlit
N/A
Visualization observer readout
Local Sidereal Time
22:19:32
Azimuth
Unknown
Elevation
Unknown
Doppler factor
Unknown
Orbital elements
Apogee altitude
998.497 km
Perigee altitude
880.306 km
Semi-major axis
7,317.539 km
Eccentricity
0.00808
Inclination
144.5124°
RAAN
37.1909°
Arg. of periapsis
194.9688°
True anomaly
165.09779°
Mean anomaly
164.8584°
Eccentric anomaly
164.97833°
Mean motion
3.46733 °/min
Orbital period
103.83 mins
BSTAR
0.00014051
Loading maneuver chart data...
Computing Atmospheric mass density...
Loading historical data...
Loading historical data...
Loading historical data...
Loading historical data...
Loading historical data...
Loading historical data...
Loading historical data...

Documentation

Showing up to 5 results
|